Sandspit, British Columbia

12:59 PM PDT on July 20, 2017 (GMT -0700)
Sandspit

Weather History for CYZP - March, 2013

Change the Weather History Date:

Saturday, March 16, 2013

  Actual Average Record
Temperature  
Mean Temperature 38 °F -  
Max Temperature 44 °F 47 °F 50 °F (2015)
Min Temperature 32 °F 37 °F 24 °F (2006)
Degree Days  
Heating Degree Days 27    
Moisture  
Dew Point 34 °F    
Average Humidity 82    
Maximum Humidity 93    
Minimum Humidity 66    
Precipitation  
Precipitation 0.00 in 0.13 in - ()
Sea Level Pressure  
Sea Level Pressure 29.92 in    
Wind  
Wind Speed 8 mph ()    
Max Wind Speed 18 mph    
Max Gust Speed 21 mph    
Visibility 8.6 miles    
Events Rain    
Averages and records for this station are not official NWS values.
T = Trace of Precipitation, MM = Missing Value Source: Averaged Metar Reports

Daily Weather History Graph

Daily Weather History Graph

Search for Another Location

Airport or City:

Trip Planner

Search our weather history database for the weather conditions in past years. The results will help you decide how hot, cold, wet, or windy it might be!

Date:

Astronomy

Mar. 16, 2013 Rise Set
Actual Time 7:58 AM PDT 7:54 PM PDT
Civil Twilight 7:23 AM PDT 8:28 PM PDT
Nautical Twilight 6:43 AM PDT 9:09 PM PDT
Astronomical Twilight 6:00 AM PDT 9:52 PM PDT
Moon 9:50 AM PDT (3/16) 12:54 AM PDT (3/16)
Length of Visible Light 13h 04m
Length of Day
11h 55m
Waxing Crescent, 24% of the Moon is Illuminated
Mar 16
Waxing Crescent
Mar 19
First Quarter
Mar 27
Full
Apr 2
Last Quarter
Apr 10
New

Hourly Weather History & Observations

Time (PDT) Temp. Windchill Dew Point Humidity Pressure Visibility Wind Dir Wind Speed Gust Speed Precip Events Conditions
12:00 AM 37.4 °F 32.8 °F 30.2 °F 75% 30.04 in 9.0 mi South 5.8 mph - N/A   Overcast
1:00 AM 35.6 °F 29.2 °F 30.2 °F 81% 30.04 in 9.0 mi SSW 8.1 mph - N/A   Mostly Cloudy
2:00 AM 35.6 °F 31.7 °F 30.2 °F 81% 30.03 in 9.0 mi South 4.6 mph - N/A   Overcast
3:00 AM 35.6 °F 30.7 °F 30.2 °F 81% 30.01 in 9.0 mi SW 5.8 mph - N/A   Overcast
4:00 AM 35.6 °F - 32.0 °F 87% 30.00 in 9.0 mi SSE 2.3 mph - N/A   Overcast
5:00 AM 34 °F - - % 29.98 in - SSE 3.5 mph - -  
5:00 AM 33.8 °F 29.6 °F 30.2 °F 87% 29.98 in 9.0 mi South 4.6 mph - N/A   Mostly Cloudy
6:00 AM 33.8 °F 30.8 °F 32.0 °F 93% 29.96 in 9.0 mi South 3.5 mph - N/A   Overcast
7:00 AM 35.6 °F - 30.2 °F 81% 29.94 in 9.0 mi WSW 2.3 mph - N/A   Scattered Clouds
8:00 AM 33.8 °F 29.6 °F 32.0 °F 93% 29.93 in 9.0 mi SE 4.6 mph - N/A   Scattered Clouds
9:00 AM 35.6 °F 32.8 °F 32.0 °F 87% 29.92 in 9.0 mi SSW 3.5 mph - N/A   Clear
10:00 AM 39.2 °F 35.9 °F 32.0 °F 75% 29.91 in 9.0 mi Variable 4.6 mph - N/A   Clear
11:00 AM 39 °F - - % 29.91 in - South 8.1 mph - -  
11:00 AM 39.2 °F 33.6 °F 32.0 °F 75% 29.91 in 9.0 mi South 8.1 mph - N/A   Overcast
11:07 AM 39.2 °F 33.0 °F 33.8 °F 81% 29.91 in 9.0 mi South 9.2 mph - N/A Rain Light Rain
11:23 AM 39.2 °F 33.6 °F 33.8 °F 81% 29.91 in 9.0 mi SSE 8.1 mph - N/A   Mostly Cloudy
12:00 PM 41.0 °F 35.2 °F 33.8 °F 76% 29.90 in 9.0 mi SE 9.2 mph - N/A   Partly Cloudy
1:00 PM 41.0 °F 35.8 °F 33.8 °F 76% 29.89 in 9.0 mi ESE 8.1 mph - N/A   Mostly Cloudy
2:00 PM 44.6 °F 38.1 °F 33.8 °F 66% 29.88 in 9.0 mi SSE 13.8 mph 20.7 mph N/A   Overcast
2:11 PM 42.8 °F 36.6 °F 33.8 °F 70% 29.88 in 9.0 mi West 11.5 mph 20.7 mph N/A   Overcast
2:26 PM 42.8 °F 36.6 °F 35.6 °F 76% 29.88 in 9.0 mi West 11.5 mph - N/A Rain Light Rain
2:36 PM 41.0 °F 33.9 °F 35.6 °F 81% 29.88 in 9.0 mi WSW 12.7 mph 19.6 mph N/A   Overcast
2:46 PM 41.0 °F 34.7 °F 33.8 °F 76% 29.88 in 8.0 mi West 10.4 mph - N/A Rain Light Rain
3:00 PM 41.0 °F 36.4 °F 35.6 °F 81% 29.88 in 9.0 mi West 6.9 mph - N/A Rain Light Rain
3:07 PM 41.0 °F 36.4 °F 33.8 °F 76% 29.88 in 9.0 mi West 6.9 mph - N/A   Mostly Cloudy
3:28 PM 41.0 °F 32.2 °F 35.6 °F 81% 29.87 in 9.0 mi WSW 18.4 mph - N/A   Mostly Cloudy
3:31 PM 41.0 °F 32.5 °F 33.8 °F 76% 29.87 in 9.0 mi SW 17.3 mph - N/A Rain Light Rain
3:57 PM 41.0 °F 33.9 °F 35.6 °F 81% 29.87 in 9.0 mi WSW 12.7 mph - N/A   Mostly Cloudy
4:00 PM 41.0 °F 33.9 °F 33.8 °F 76% 29.87 in 9.0 mi WSW 12.7 mph - N/A   Mostly Cloudy
5:00 PM 42 °F - - % 29.88 in - West 15.0 mph - -  
5:00 PM 42.8 °F 35.4 °F 35.6 °F 76% 29.88 in 9.0 mi West 15.0 mph - N/A   Mostly Cloudy
5:20 PM 41.0 °F 32.8 °F 35.6 °F 81% 29.89 in 9.0 mi WNW 16.1 mph - N/A Rain Light Rain
5:27 PM 39.2 °F 33.6 °F 35.6 °F 87% 29.89 in 5.0 mi WNW 8.1 mph 19.6 mph N/A Rain Light Rain
5:28 PM 39.2 °F 33.0 °F 35.6 °F 87% 29.89 in 5.0 mi West 9.2 mph 19.6 mph N/A Rain Light Rain
5:30 PM 39.2 °F 31.6 °F 35.6 °F 87% 29.89 in 5.0 mi WNW 12.7 mph 19.6 mph N/A Rain Light Rain
5:34 PM 39.2 °F 31.2 °F 35.6 °F 87% 29.89 in 6.0 mi NW 13.8 mph - N/A Rain Light Rain
5:56 PM 39.2 °F 32.0 °F 35.6 °F 87% 29.89 in 9.0 mi West 11.5 mph 17.3 mph N/A   Scattered Clouds
6:00 PM 39.2 °F 32.0 °F 35.6 °F 87% 29.89 in 9.0 mi West 11.5 mph - N/A   Scattered Clouds
6:11 PM 39.2 °F 31.2 °F 35.6 °F 87% 29.90 in 9.0 mi West 13.8 mph - N/A   Mostly Cloudy
6:54 PM 39.2 °F 31.2 °F 35.6 °F 87% 29.91 in 9.0 mi NW 13.8 mph - N/A   Mostly Cloudy
7:00 PM 39.2 °F 30.2 °F 35.6 °F 87% 29.91 in 9.0 mi NW 17.3 mph - N/A   Mostly Cloudy
8:00 PM 39.2 °F 30.5 °F 33.8 °F 81% 29.94 in 9.0 mi NW 16.1 mph - N/A   Overcast
9:00 PM 37.4 °F 27.8 °F 33.8 °F 87% 29.97 in 9.0 mi NW 17.3 mph - N/A   Overcast
9:21 PM 37.4 °F 28.5 °F 33.8 °F 87% 29.97 in 9.0 mi NW 15.0 mph - N/A Rain Light Rain
9:31 PM 37.4 °F 29.3 °F 33.8 °F 87% 29.98 in 9.0 mi WNW 12.7 mph - N/A   Overcast
10:00 PM 37.4 °F 28.9 °F 33.8 °F 87% 29.98 in 9.0 mi West 13.8 mph - N/A   Overcast
11:00 PM 39 °F - - % 29.99 in - West 15.0 mph - -